Culdrose, United Kingdom

6:48 PM BST on July 24, 2016 (GMT +0100)
Culdrose Navy

Weather History for EGDR - October, 2011

Change the Weather History Date:

Sunday, October 9, 2011

  Actual Average Record
Temperature  
Mean Temperature 58 °F -  
Max Temperature 59 °F 54 °F 62 °F (1997)
Min Temperature 56 °F 46 °F 42 °F (1998)
Degree Days  
Heating Degree Days 8    
Growing Degree Days 8 (Base 50)    
Moisture  
Dew Point 57 °F    
Average Humidity 97    
Maximum Humidity 100    
Minimum Humidity 91    
Precipitation  
Precipitation 0.01 in - - ()
Sea Level Pressure  
Sea Level Pressure 30.25 in    
Wind  
Wind Speed 10 mph ()    
Max Wind Speed 16 mph    
Max Gust Speed 28 mph    
Visibility 1.8 miles    
Events Rain    
Averages and records for this station are not official NWS values.
T = Trace of Precipitation, MM = Missing Value Source: Averaged Metar Reports

Daily Weather History Graph

Daily Weather History Graph

Search for Another Location

Airport or City:

Trip Planner

Search our weather history database for the weather conditions in past years. The results will help you decide how hot, cold, wet, or windy it might be!

Date:

Astronomy

Oct. 09, 2011 Rise Set
Actual Time 7:32 AM BST 6:43 PM BST
Civil Twilight 7:00 AM BST 7:15 PM BST
Nautical Twilight 6:22 AM BST 7:52 PM BST
Astronomical Twilight 5:45 AM BST 8:30 PM BST
Moon 5:21 PM BST (10/9) 4:53 AM BST (10/9)
Length of Visible Light 12h 15m
Length of Day
11h 10m
Waxing Gibbous, 94% of the Moon is Illuminated
Oct 9
Waxing Gibbous
Oct 12
Full
Oct 20
Last Quarter
Oct 26
New
Nov 2
First Quarter

Hourly Weather History & Observations

Time (BST) Temp. Dew Point Humidity Pressure Visibility Wind Dir Wind Speed Gust Speed Precip Events Conditions
12:50 AM 59 °F 57 °F 91% 30.29 in 3 mi West 9.2 mph - -   Haze
12:50 AM 59.0 °F 57.2 °F 94% 30.27 in 3.1 mi West 9.2 mph - N/A   Haze
1:50 AM 59.0 °F 57.2 °F 94% 30.27 in 3.1 mi West 5.8 mph 18.4 mph N/A   Overcast
2:50 AM 57.2 °F 57.2 °F 100% 30.27 in 3.1 mi West 10.4 mph 21.9 mph N/A   Overcast
3:50 AM 57 °F 56 °F 95% 30.27 in 2 mi West 16.1 mph - - Rain Light Drizzle
3:50 AM 57.2 °F 55.4 °F 94% 30.27 in 1.7 mi West 16.1 mph 27.6 mph N/A   Light Drizzle
4:50 AM 57.2 °F 57.2 °F 100% 30.24 in 3.1 mi West 9.2 mph - N/A   Mostly Cloudy
6:50 AM 57 °F 56 °F 97% 30.25 in 1 mi West 11.5 mph - - Rain Drizzle
6:50 AM 57.2 °F 57.2 °F 100% 30.24 in 1.2 mi West 11.5 mph - N/A   Drizzle
7:50 AM 57.2 °F 55.4 °F 94% 30.24 in 1.9 mi West 15.0 mph - N/A   Drizzle
8:50 AM 57.2 °F 57.2 °F 100% 30.24 in 1.2 mi West 16.1 mph - N/A   Mostly Cloudy
9:50 AM 57 °F 57 °F 100% 30.26 in 1 mi West 10.4 mph - - Rain Drizzle
9:50 AM 57.2 °F 57.2 °F 100% 30.24 in 0.6 mi West 10.4 mph 21.9 mph N/A   Drizzle
10:50 AM 57.2 °F 57.2 °F 100% 30.24 in 0.5 mi West 8.1 mph 20.7 mph N/A   Drizzle
11:50 AM 59.0 °F 59.0 °F 100% 30.24 in 0.2 mi West 16.1 mph - N/A   Drizzle
12:50 PM 58 °F 58 °F 100% 30.26 in 0 mi West 12.7 mph - - Rain Drizzle
12:50 PM 59.0 °F 59.0 °F 100% 30.24 in 0.5 mi West 12.7 mph - N/A   Drizzle
1:50 PM 59.0 °F 59.0 °F 100% 30.24 in 1.6 mi WSW 11.5 mph 23.0 mph N/A   Overcast
2:50 PM 59.0 °F 59.0 °F 100% 30.24 in 3.1 mi West 12.7 mph - N/A   Overcast
3:50 PM 59 °F 58 °F 96% 30.25 in 3 mi WSW 13.8 mph - -   Mist
3:50 PM 59.0 °F 59.0 °F 100% 30.24 in 3.1 mi WSW 13.8 mph - N/A   Overcast
4:50 PM 59.0 °F 57.2 °F 94% 30.24 in 1.9 mi WSW 16.1 mph - N/A   Drizzle
5:50 PM 59.0 °F 57.2 °F 94% 30.24 in 1.9 mi WSW 11.5 mph - N/A   Light Drizzle
6:50 PM 58 °F 58 °F 100% 30.25 in 2 mi WSW 6.9 mph - - Rain Light Drizzle
6:50 PM 59.0 °F 57.2 °F 94% 30.24 in 1.9 mi WSW 6.9 mph - N/A   Overcast
7:50 PM 59.0 °F 57.2 °F 94% 30.24 in 1.9 mi Calm Calm - N/A   Drizzle
8:50 PM 59.0 °F 57.2 °F 94% 30.24 in 1.9 mi West 2.3 mph 17.3 mph N/A   Drizzle
9:50 PM 58 °F 58 °F 100% 30.25 in 2 mi West 9.2 mph - - Rain Light Drizzle
9:50 PM 59.0 °F 59.0 °F 100% 30.24 in 1.9 mi West 9.2 mph - N/A   Light Drizzle
10:50 PM 59.0 °F 57.2 °F 94% 30.24 in 1.9 mi WSW 8.1 mph 20.7 mph N/A   Light Drizzle
11:50 PM 59.0 °F 57.2 °F 94% 30.21 in 1.7 mi WSW 12.7 mph 24.2 mph N/A   Drizzle